TimeEST,TemperatureF,Dew PointF,Humidity,Sea Level PressureIn,VisibilityMPH,Wind Direction,Wind SpeedMPH,Gust SpeedMPH,PrecipitationIn,Events,Conditions,WindDirDegrees,DateUTC
12:15 AM,15.8,-9.4,32,30.26,10.0,West,10.4,17.3,N/A,,Clear,260,2013-02-07 05:15:00
12:35 AM,15.8,-9.4,32,30.25,10.0,West,8.1,-,N/A,,Clear,280,2013-02-07 05:35:00
12:55 AM,15.8,-9.4,32,30.28,10.0,West,10.4,16.1,N/A,,Clear,270,2013-02-07 05:55:00
1:15 AM,14.0,-9.4,35,30.27,10.0,West,10.4,17.3,N/A,,Clear,270,2013-02-07 06:15:00
1:35 AM,14.0,-9.4,35,30.28,10.0,West,9.2,-,N/A,,Clear,260,2013-02-07 06:35:00
1:55 AM,14.0,-9.4,35,30.28,10.0,West,5.8,-,N/A,,Clear,280,2013-02-07 06:55:00
2:15 AM,14.0,-9.4,35,30.28,10.0,WNW,4.6,-,N/A,,Clear,300,2013-02-07 07:15:00
2:35 AM,12.2,-7.6,41,30.29,10.0,West,4.6,-,N/A,,Clear,280,2013-02-07 07:35:00
2:55 AM,12.2,-7.6,41,30.29,10.0,Calm,Calm,-,N/A,,Clear,0,2013-02-07 07:55:00
3:15 AM,12.2,-7.6,41,30.29,10.0,Calm,Calm,-,N/A,,Clear,0,2013-02-07 08:15:00
3:35 AM,12.2,-7.6,41,30.30,10.0,Calm,Calm,-,N/A,,Clear,0,2013-02-07 08:35:00
3:55 AM,12.2,-7.6,41,30.30,10.0,Calm,Calm,-,N/A,,Clear,0,2013-02-07 08:55:00
4:15 AM,12.2,-7.6,41,30.32,10.0,West,5.8,-,N/A,,Clear,260,2013-02-07 09:15:00
4:35 AM,12.2,-7.6,41,30.33,10.0,WSW,5.8,-,N/A,,Clear,250,2013-02-07 09:35:00
4:55 AM,10.4,-7.6,44,30.35,10.0,WSW,5.8,-,N/A,,Clear,250,2013-02-07 09:55:00
5:15 AM,10.4,-7.6,44,30.35,10.0,WSW,3.5,-,N/A,,Clear,240,2013-02-07 10:15:00
5:35 AM,10.4,-7.6,44,30.36,10.0,SW,8.1,-,N/A,,Clear,220,2013-02-07 10:35:00
5:55 AM,10.4,-7.6,44,30.36,10.0,WSW,8.1,-,N/A,,Clear,240,2013-02-07 10:55:00
6:15 AM,10.4,-7.6,44,30.36,10.0,West,6.9,-,N/A,,Clear,260,2013-02-07 11:15:00
6:35 AM,10.4,-7.6,44,30.37,10.0,West,6.9,-,N/A,,Clear,260,2013-02-07 11:35:00
6:55 AM,10.4,-7.6,44,30.37,10.0,WSW,10.4,-,N/A,,Clear,250,2013-02-07 11:55:00
7:15 AM,10.4,-5.8,48,30.39,10.0,SW,12.7,-,N/A,,Clear,230,2013-02-07 12:15:00
7:35 AM,10.4,-5.8,48,30.41,10.0,WSW,11.5,-,N/A,,Clear,250,2013-02-07 12:35:00
7:55 AM,10.4,-5.8,48,30.42,10.0,WSW,16.1,19.6,N/A,,Clear,250,2013-02-07 12:55:00
8:15 AM,10.4,-5.8,48,30.43,10.0,WSW,17.3,-,N/A,,Clear,250,2013-02-07 13:15:00
8:35 AM,10.4,-5.8,48,30.43,10.0,WSW,16.1,20.7,N/A,,Clear,240,2013-02-07 13:35:00
8:55 AM,12.2,-5.8,45,30.45,10.0,WSW,12.7,17.3,N/A,,Clear,250,2013-02-07 13:55:00
9:15 AM,10.4,-7.6,44,30.46,10.0,WSW,17.3,20.7,N/A,,Clear,250,2013-02-07 14:15:00
9:35 AM,12.2,-7.6,41,30.47,10.0,WSW,10.4,-,N/A,,Clear,250,2013-02-07 14:35:00
9:55 AM,12.2,-7.6,41,30.47,10.0,West,12.7,18.4,N/A,,Clear,260,2013-02-07 14:55:00
10:15 AM,12.2,-7.6,41,30.48,10.0,West,13.8,-,N/A,,Clear,260,2013-02-07 15:15:00
10:35 AM,14.0,-9.4,35,30.48,10.0,West,10.4,16.1,N/A,,Clear,260,2013-02-07 15:35:00
10:55 AM,15.8,-7.6,35,30.49,10.0,WSW,11.5,19.6,N/A,,Clear,250,2013-02-07 15:55:00
11:15 AM,15.8,-7.6,35,30.49,10.0,WSW,9.2,17.3,N/A,,Clear,250,2013-02-07 16:15:00
11:35 AM,15.8,-7.6,35,30.48,10.0,WSW,15.0,18.4,N/A,,Clear,240,2013-02-07 16:35:00
11:55 AM,17.6,-7.6,32,30.47,10.0,WSW,11.5,16.1,N/A,,Clear,250,2013-02-07 16:55:00
12:15 PM,17.6,-7.6,32,30.47,10.0,WSW,9.2,18.4,N/A,,Clear,250,2013-02-07 17:15:00
12:35 PM,17.6,-7.6,32,30.47,10.0,WNW,9.2,-,N/A,,Clear,290,2013-02-07 17:35:00
12:55 PM,17.6,-9.4,30,30.46,10.0,WSW,12.7,-,N/A,,Clear,240,2013-02-07 17:55:00
1:15 PM,19.4,-9.4,28,30.46,10.0,WNW,5.8,-,N/A,,Clear,290,2013-02-07 18:15:00
1:35 PM,21.2,-7.6,28,30.45,10.0,WNW,6.9,-,N/A,,Clear,290,2013-02-07 18:35:00
1:55 PM,19.4,-9.4,28,30.44,10.0,WSW,9.2,-,N/A,,Clear,240,2013-02-07 18:55:00
2:15 PM,21.2,-9.4,26,30.45,10.0,West,8.1,-,N/A,,Clear,270,2013-02-07 19:15:00
2:35 PM,21.2,-9.4,26,30.44,10.0,West,5.8,-,N/A,,Clear,260,2013-02-07 19:35:00
2:55 PM,21.2,-9.4,26,30.45,10.0,WSW,4.6,-,N/A,,Clear,250,2013-02-07 19:55:00
3:15 PM,23.0,-9.4,24,30.44,10.0,WNW,5.8,-,N/A,,Clear,300,2013-02-07 20:15:00
3:35 PM,21.2,-9.4,26,30.44,10.0,WNW,4.6,-,N/A,,Clear,300,2013-02-07 20:35:00
3:55 PM,21.2,-9.4,26,30.44,10.0,NW,5.8,-,N/A,,Scattered Clouds,310,2013-02-07 20:55:00
4:15 PM,21.2,-11.2,24,30.44,10.0,NNW,5.8,-,N/A,,Mostly Cloudy,340,2013-02-07 21:15:00
4:35 PM,19.4,-11.2,25,30.44,10.0,North,3.5,-,N/A,,Mostly Cloudy,360,2013-02-07 21:35:00
4:55 PM,19.4,-9.4,28,30.44,10.0,WNW,3.5,-,N/A,,Overcast,300,2013-02-07 21:55:00
5:15 PM,19.4,-9.4,28,30.44,10.0,Calm,Calm,-,N/A,,Mostly Cloudy,0,2013-02-07 22:15:00
5:35 PM,19.4,-9.4,28,30.44,10.0,Calm,Calm,-,N/A,,Partly Cloudy,0,2013-02-07 22:35:00
5:55 PM,17.6,-9.4,30,30.45,10.0,Calm,Calm,-,N/A,,Clear,0,2013-02-07 22:55:00
6:15 PM,17.6,-5.8,35,30.46,10.0,Calm,Calm,-,N/A,,Partly Cloudy,0,2013-02-07 23:15:00
6:35 PM,15.8,-4.0,41,30.47,10.0,Calm,Calm,-,N/A,,Mostly Cloudy,0,2013-02-07 23:35:00
6:55 PM,17.6,-2.2,42,30.47,10.0,Calm,Calm,-,N/A,,Overcast,0,2013-02-07 23:55:00
7:15 PM,17.6,-2.2,42,30.47,10.0,Calm,Calm,-,N/A,,Overcast,0,2013-02-08 00:15:00
7:35 PM,17.6,-0.4,45,30.47,10.0,Calm,Calm,-,N/A,,Overcast,0,2013-02-08 00:35:00
7:55 PM,17.6,-0.4,45,30.48,10.0,Calm,Calm,-,N/A,,Overcast,0,2013-02-08 00:55:00
8:15 PM,19.4,-0.4,42,30.48,10.0,Calm,Calm,-,N/A,,Overcast,0,2013-02-08 01:15:00
8:35 PM,19.4,-0.4,42,30.47,10.0,Calm,Calm,-,N/A,,Overcast,0,2013-02-08 01:35:00
8:55 PM,17.6,1.4,49,30.47,10.0,Calm,Calm,-,N/A,,Overcast,0,2013-02-08 01:55:00
9:15 PM,17.6,-0.4,45,30.47,10.0,Calm,Calm,-,N/A,,Overcast,0,2013-02-08 02:15:00
9:35 PM,17.6,1.4,49,30.47,10.0,Calm,Calm,-,N/A,,Overcast,0,2013-02-08 02:35:00
9:55 PM,19.4,-0.4,42,30.47,10.0,NE,3.5,-,N/A,,Overcast,50,2013-02-08 02:55:00
10:15 PM,19.4,-4.0,36,30.47,10.0,ENE,3.5,-,N/A,,Overcast,60,2013-02-08 03:15:00
10:35 PM,19.4,-0.4,42,30.46,10.0,ENE,6.9,-,N/A,,Overcast,60,2013-02-08 03:35:00
10:55 PM,19.4,-0.4,42,30.45,10.0,NE,8.1,-,N/A,,Overcast,50,2013-02-08 03:55:00
11:15 PM,17.6,-0.4,45,30.47,10.0,ENE,8.1,-,N/A,,Overcast,70,2013-02-08 04:15:00
11:35 PM,17.6,-0.4,45,30.47,10.0,NE,9.2,-,N/A,,Overcast,50,2013-02-08 04:35:00
11:55 PM,17.6,-2.2,42,30.47,10.0,East,8.1,-,N/A,,Overcast,80,2013-02-08 04:55:00